Time,TemperatureF,DewpointF,PressureIn,WindDirection,WindDirectionDegrees,WindSpeedMPH,WindSpeedGustMPH,Humidity,HourlyPrecipIn,Conditions,Clouds,dailyrainin,SoftwareType,DateUTC
2014-04-20 00:03:00,-999.0,-99.9,-100.00,NE,40,0.0,3.0,-999,0.00,,,-99.99,,2014-04-20 04:03:00,
2014-04-20 00:23:00,42.0,32.0,-100.00,NE,45,0.0,1.0,66,0.00,,,-99.99,,2014-04-20 04:23:00,
2014-04-20 00:54:00,43.0,30.0,-100.00,NE,50,0.0,0.0,60,0.00,,,-99.99,,2014-04-20 04:54:00,
2014-04-20 01:23:00,41.0,35.0,-100.00,NE,50,0.0,0.0,78,0.00,,,-99.99,,2014-04-20 05:23:00,
2014-04-20 01:53:00,40.0,31.0,-100.00,NE,45,0.0,0.0,68,0.00,,,-99.99,,2014-04-20 05:53:00,
2014-04-20 02:22:00,39.0,33.0,-100.00,NE,45,0.0,0.0,77,0.00,,,-99.99,,2014-04-20 06:22:00,
2014-04-20 02:52:00,40.0,31.0,-100.00,NNE,30,0.0,0.0,71,0.00,,,-99.99,,2014-04-20 06:52:00,
2014-04-20 03:22:00,39.0,31.0,-100.00,NNE,30,0.0,0.0,74,0.00,,,-99.99,,2014-04-20 07:22:00,
2014-04-20 03:52:00,39.0,30.0,-100.00,NE,35,0.0,0.0,72,0.00,,,-99.99,,2014-04-20 07:52:00,
2014-04-20 04:22:00,38.0,31.0,-100.00,NNE,30,0.0,0.0,76,0.00,,,-99.99,,2014-04-20 08:22:00,
2014-04-20 04:52:00,38.0,31.0,-100.00,NE,45,0.0,1.0,77,0.00,,,-99.99,,2014-04-20 08:52:00,
2014-04-20 05:22:00,37.0,32.0,-100.00,NE,35,0.0,0.0,82,0.00,,,-99.99,,2014-04-20 09:22:00,
2014-04-20 05:53:00,37.0,31.0,-100.00,NE,45,0.0,0.0,80,0.00,,,-99.99,,2014-04-20 09:53:00,
2014-04-20 06:23:00,37.0,31.0,-100.00,NE,45,0.0,0.0,79,0.00,,,-99.99,,2014-04-20 10:23:00,
2014-04-20 06:53:00,37.0,33.0,-100.00,NE,45,0.0,0.0,88,0.00,,,-99.99,,2014-04-20 10:53:00,
2014-04-20 07:22:00,36.0,32.0,-100.00,NE,45,0.0,0.0,86,0.00,,,-99.99,,2014-04-20 11:22:00,
2014-04-20 07:52:00,37.0,34.0,-100.00,ENE,60,0.0,0.0,91,0.00,,,-99.99,,2014-04-20 11:52:00,
2014-04-20 08:22:00,41.0,33.0,-100.00,NE,45,0.0,0.0,72,0.00,,,-99.99,,2014-04-20 12:22:00,
2014-04-20 08:52:00,45.0,34.0,-100.00,ENE,60,1.0,3.0,63,0.00,,,-99.99,,2014-04-20 12:52:00,
2014-04-20 09:22:00,49.0,32.0,-100.00,ENE,65,3.0,6.0,51,0.00,,,-99.99,,2014-04-20 13:22:00,
2014-04-20 09:52:00,52.0,34.0,-100.00,ENE,60,2.0,7.0,49,0.00,,,-99.99,,2014-04-20 13:52:00,
2014-04-20 10:52:00,60.0,33.0,-100.00,ENE,65,2.0,6.0,35,0.00,,,-99.99,,2014-04-20 14:52:00,
2014-04-20 11:22:00,64.0,35.0,-100.00,SE,125,2.0,7.0,34,0.00,,,-99.99,,2014-04-20 15:22:00,
2014-04-20 11:53:00,65.0,33.0,-100.00,ESE,105,2.0,6.0,29,0.00,,,-99.99,,2014-04-20 15:53:00,
2014-04-20 12:23:00,68.0,35.0,-100.00,NE,45,2.0,9.0,30,0.00,,,-99.99,,2014-04-20 16:23:00,
2014-04-20 12:53:00,69.0,35.0,-100.00,East,85,1.0,6.0,29,0.00,,,-99.99,,2014-04-20 16:53:00,
2014-04-20 13:22:00,69.0,33.0,-100.00,ENE,75,2.0,7.0,26,0.00,,,-99.99,,2014-04-20 17:22:00,
2014-04-20 13:53:00,69.0,32.0,-100.00,East,85,5.0,12.0,24,0.00,,,-99.99,,2014-04-20 17:53:00,
2014-04-20 14:22:00,70.0,31.0,-100.00,ESE,105,3.0,9.0,23,0.00,,,-99.99,,2014-04-20 18:22:00,
2014-04-20 14:52:00,71.0,39.0,-100.00,ENE,60,1.0,4.0,30,0.00,,,-99.99,,2014-04-20 18:52:00,
2014-04-20 15:22:00,72.0,37.0,-100.00,East,95,4.0,10.0,27,0.00,,,-99.99,,2014-04-20 19:22:00,
2014-04-20 15:52:00,73.0,36.0,-100.00,North,0,4.0,9.0,25,0.00,,,-99.99,,2014-04-20 19:52:00,
2014-04-20 16:22:00,74.0,31.0,-100.00,SE,145,2.0,6.0,21,0.00,,,-99.99,,2014-04-20 20:22:00,
2014-04-20 16:52:00,73.0,34.0,-100.00,ESE,115,1.0,6.0,24,0.00,,,-99.99,,2014-04-20 20:52:00,
2014-04-20 17:22:00,75.0,31.0,-100.00,NNE,20,1.0,4.0,20,0.00,,,-99.99,,2014-04-20 21:22:00,
2014-04-20 17:53:00,75.0,36.0,-100.00,NNE,30,1.0,7.0,24,0.00,,,-99.99,,2014-04-20 21:53:00,
2014-04-20 18:23:00,74.0,32.0,-100.00,North,5,3.0,7.0,21,0.00,,,-99.99,,2014-04-20 22:23:00,
2014-04-20 18:53:00,74.0,33.0,-100.00,SSE,160,1.0,5.0,22,0.00,,,-99.99,,2014-04-20 22:53:00,
2014-04-20 19:22:00,73.0,34.0,-100.00,South,190,1.0,4.0,24,0.00,,,-99.99,,2014-04-20 23:22:00,
2014-04-20 19:52:00,72.0,31.0,-100.00,SSE,160,1.0,3.0,22,0.00,,,-99.99,,2014-04-20 23:52:00,
2014-04-20 20:22:00,69.0,34.0,-100.00,ENE,70,1.0,3.0,26,0.00,,,-99.99,,2014-04-21 00:22:00,
2014-04-20 20:52:00,66.0,37.0,-100.00,ENE,75,0.0,2.0,34,0.00,,,-99.99,,2014-04-21 00:52:00,